Quincy, IL

12:01 AM CST on November 22, 2019 (GMT -0600)
Quincy Regional-Baldwin

Weather History for KUIN - July, 2019

Change the Weather History Date:

Saturday, July 13, 2019

  Actual Average Record
Temperature  
Mean Temperature 80 °F 76 °F  
Max Temperature 92 °F 86 °F 108 °F (1936)
Min Temperature 68 °F 67 °F 51 °F (1964)
Degree Days  
Heating Degree Days 0 0  
Month to date heating degree days 0 0  
Since 1 June heating degree days 5 16  
Since 1 July heating degree days 0 0  
Cooling Degree Days 15 11  
Month to date cooling degree days 205 143  
Year to date cooling degree days 552 456  
Since 1 June cooling degree days 442 370  
Growing Degree Days 30 (Base 50)    
Moisture  
Dew Point 65 °F    
Average Humidity 63    
Maximum Humidity 87    
Minimum Humidity 38    
Precipitation  
Precipitation 0.00 in 0.14 in 3.86 in (1937)
Month to date precipitation 0.20 1.74  
Year to date precipitation 23.60 19.82  
Sea Level Pressure  
Sea Level Pressure 30.01 in    
Wind  
Wind Speed 6 mph (SSW)    
Max Wind Speed 12 mph    
Max Gust Speed 16 mph    
Visibility 10 miles    
Events      
T = Trace of Precipitation, MM = Missing Value Source: NWS Daily Summary

Daily Weather History Graph

Daily Weather History Graph

Search for Another Location

Airport or City:

Astronomy

Jul. 13, 2019 Rise Set
Actual Time 5:47 AM CDT 8:33 PM CDT
Civil Twilight 5:15 AM CDT 9:05 PM CDT
Nautical Twilight 4:34 AM CDT 9:45 PM CDT
Astronomical Twilight 3:49 AM CDT 10:31 PM CDT
Moon 5:56 PM CDT (7/13) 3:07 AM CDT (7/13)
Length of Visible Light 15h 50m
Length of Day
14h 46m
Waxing Gibbous, 90% of the Moon is Illuminated
Jul 13
Waxing Gibbous
Jul 16
Full
Jul 24
Last Quarter
Jul 31
New
Aug 7
First Quarter

Hourly Weather History & Observations

Time (CDT) Temp. Heat Index Dew Point Humidity Pressure Visibility Wind Dir Wind Speed Gust Speed Precip Events Conditions
12:54 AM 72.0 °F - 64.0 °F 76% 29.95 in 10.0 mi SSE 4.6 mph - N/A   Clear
1:54 AM 71.1 °F - 63.0 °F 75% 29.96 in 10.0 mi South 4.6 mph - N/A   Clear
2:54 AM 69.1 °F - 64.0 °F 84% 29.97 in 10.0 mi SSW 6.9 mph - N/A   Clear
3:54 AM 68.0 °F - 64.0 °F 87% 29.99 in 10.0 mi South 4.6 mph - N/A   Clear
4:54 AM 68.0 °F - 64.0 °F 87% 30.00 in 10.0 mi SSW 4.6 mph - N/A   Clear
5:54 AM 69.1 °F - 64.9 °F 87% 29.99 in 10.0 mi South 5.8 mph - N/A   Clear
6:54 AM 71.1 °F - 66.0 °F 84% 30.01 in 10.0 mi SSW 4.6 mph - N/A   Clear
7:54 AM 75.0 °F - 66.0 °F 73% 30.02 in 10.0 mi SW 5.8 mph - N/A   Clear
8:54 AM 80.1 °F 82.3 °F 66.9 °F 64% 30.04 in 10.0 mi SW 5.8 mph - N/A   Clear
9:54 AM 82.9 °F 85.0 °F 66.0 °F 56% 30.04 in 10.0 mi West 6.9 mph - N/A   Clear
10:54 AM 84.9 °F 87.1 °F 66.0 °F 53% 30.04 in 10.0 mi West 6.9 mph - N/A   Clear
11:54 AM 87.1 °F 89.2 °F 66.0 °F 49% 30.04 in 10.0 mi NW 6.9 mph - N/A   Clear
12:54 PM 89.1 °F 91.0 °F 64.9 °F 45% 30.03 in 10.0 mi North - - N/A   Clear
1:54 PM 90.0 °F 91.7 °F 64.9 °F 43% 30.02 in 10.0 mi Variable 3.5 mph - N/A   Clear
2:54 PM 91.0 °F 91.9 °F 63.0 °F 39% 30.01 in 10.0 mi SSW 5.8 mph - N/A   Clear
3:54 PM 91.9 °F 94.5 °F 66.0 °F 42% 30.00 in 10.0 mi SSW 10.4 mph - N/A   Clear
4:54 PM 91.0 °F 93.0 °F 64.9 °F 42% 29.99 in 10.0 mi South 6.9 mph - N/A   Clear
5:54 PM 90.0 °F 91.3 °F 64.0 °F 42% 29.98 in 10.0 mi South 6.9 mph - N/A   Clear
6:54 PM 88.0 °F 90.3 °F 66.0 °F 48% 29.98 in 10.0 mi South 4.6 mph - N/A   Clear
7:54 PM 84.0 °F 86.5 °F 66.9 °F 56% 29.99 in 10.0 mi South 4.6 mph - N/A   Clear
8:54 PM 82.0 °F 84.5 °F 66.9 °F 60% 30.00 in 10.0 mi SSE 3.5 mph - N/A   Clear
9:54 PM 80.1 °F 82.1 °F 66.0 °F 62% 30.01 in 10.0 mi SSE 4.6 mph - N/A   Clear
10:54 PM 78.1 °F - 64.9 °F 64% 30.03 in 10.0 mi SSE 5.8 mph - N/A   Clear
11:54 PM 78.1 °F - 64.9 °F 64% 30.04 in 10.0 mi SSE 6.9 mph - N/A   Clear